Regional Weather Roundup
Issued by NWS

Home | Current Version | Previous Version | Graphics & Text | Print | Product List | Glossary On
Versions: 1 2 3 4 5 6 7 8 9 10 11 12 13 14 15 16 17 18 19 20 21 22 23 24 25 26 27 28 29 30 31 32 33 34 35 36 37 38 39 40 41 42 43 44 45 46 47 48 49 50
000
ASUS43 KLOT 121110
RWRIL

ILLINOIS REGIONAL WEATHER ROUNDUP
NATIONAL WEATHER SERVICE CHICAGO/ROMEOVILLE IL
600 AM CDT SAT JUL 12 2014

NOTE: "FAIR" INDICATES FEW OR NO CLOUDS BELOW 12,000 FEET WITH NO
SIGNIFICANT WEATHER AND/OR OBSTRUCTIONS TO VISIBILITY.

* THESE STATIONS ARE NOT UNDER NWS QUALITY CONTROL. THEY ALSO MAY NOT
  REPORT WEATHER SUCH AS PRECIPITATION OR FOG.

ILZ001-002-007-009-015-016-024-121200-
NORTHWEST ILLINOIS

CITY           SKY/WX    TMP DP  RH WIND       PRES   REMARKS
MOLINE         CLOUDY    74  70  87 W3        30.00S
STERLING*      CLOUDY    70  66  88 CALM      30.02S
SAVANNA*       CLOUDY    70  66  86 CALM      30.02R
$$

ILZ003-004-008-010-011-017-018-121200-
NORTH CENTRAL ILLINOIS

CITY           SKY/WX    TMP DP  RH WIND       PRES   REMARKS
ROCKFORD       CLOUDY    69  63  81 SE5       30.04R
FREEPORT*      MOCLDY    62  60  94 CALM      30.04S
ROCHELLE*      PTCLDY    68  64  87 SE3       30.04R
DE KALB*       MOCLDY    66  64  92 SE7       30.04F THUNDER
PERU*          CLOUDY    72  67  84 S7        30.04R
$$

ILZ005-006-012>014-019>023-121200-
NORTHEAST ILLINOIS

CITY           SKY/WX    TMP DP  RH WIND       PRES   REMARKS
CHICAGO-OHARE  MOCLDY    73  60  63 S9        30.04R
CHICAGO-MIDWAY MOCLDY    76  62  62 S8        30.05R
AURORA         CLOUDY    70  64  81 SE6       30.04S
LANSING*       PTCLDY    72  60  67 S7        30.07R
JOLIET*        TSTM      69  65  85 S5        30.06R
WAUKEGAN       LGT RAIN  70  61  73 S8        30.03S
DUPAGE AIRPORT TSTM      69  65  86 S5        30.05R
KANKAKEE*      TSTM      69  66  89 S9        30.07S
WHEELING       MOCLDY    72  62  71 S6        30.05S
MORRIS*        CLOUDY    70  67  90 S7        30.04R
ROMEOVILLE*    CLOUDY    68  65  92 S8        30.05R
NORTHERLY ISL    N/A     73  60  63 S7          N/A
$$

LMZ740>746-121200-
SOUTHERN LAKE MICHIGAN

STATION/POSITION SKY/WX   TEMP    WIND        PRES    VSBY  WAVE
                          AIR SEA DIR/SP/G                  HT/PER
                          (F)     (DEG/KT/KT) (MB)    (MI)  (FT/S)
SOUTHERN BUOY              64 58  160/  8/ 10 1017.8R         1
WAUKEGAN HARBOR            66      CALM  /  2 1018.3S
HARRISON CRIB              72     170/ 13/ 14   N/A
BURNHAM HARBOR             74     200/  7/  8   N/A
CALUMET HARBOR             74     170/  7/ 10 1018.4R
MICHIGAN CITY              73     140/ 11/ 15   N/A
$$

ILZ025>027-034>036-040-047-049-050-058-095>099-121200-
WEST-CENTRAL ILLINOIS

CITY           SKY/WX    TMP DP  RH WIND       PRES   REMARKS
QUINCY         CLOUDY    77  72  84 SW10      30.05R
GALESBURG*     CLOUDY    75  73  92 SW9       30.03R
MACOMB*        CLOUDY    75  73  91 SW7       30.05S
JACKSONVILLE*  CLOUDY    78  73  85 S8        30.08R HX  81
PITTSFIELD*    CLOUDY    78  72  82 S7        30.08R HX  80
$$

ILZ028>032-037-038-041>044-048-051>054-059>061-121200-
CENTRAL ILLINOIS

CITY           SKY/WX    TMP DP  RH WIND       PRES   REMARKS
PONTIAC        TSTM      72  72 100 S5        30.04F
BLOOMINGTON    CLOUDY    72  68  87 S13       30.08R
DECATUR        CLOUDY    72  69  90 S5        30.10R
PEORIA         CLOUDY    76  70  82 SW7       30.03R
LACON*         CLOUDY    73  68  86 SE6       30.02R
LINCOLN*       MOCLDY    75  70  84 S6        30.03S
SPRINGFIELD    MOCLDY    78  72  81 SW6       30.07R HX  80
TAYLORVILLE    CLOUDY    72  70  94 E7        30.08S
$$

ILZ033-039-045-046-055>057-062-063-121200-
EAST-CENTRAL ILLINOIS

CITY           SKY/WX    TMP DP  RH WIND       PRES   REMARKS
CHAMPAIGN      TSTM      70  68  93 S13       30.09F FOG
RANTOUL*       MOCLDY    71  67  85 SE8       30.09F
MATTOON        RAIN      71  68  90 SW7       30.11R FOG
PARIS*         CLOUDY    70  66  88 S3        30.12S
$$

ILZ079-100>102-121200-
SOUTHWEST ILLINOIS

CITY           SKY/WX    TMP DP  RH WIND       PRES   REMARKS
ALTON          CLOUDY    76  74  95 S6        30.10R
BELLEVILLE     CLOUDY    76  73  92 S3        30.09R
CAHOKIA*       CLOUDY    76  71  85 CALM      30.10R
SPARTA*        CLOUDY    73  70  88 S7        30.12R
$$

ILZ064>066-069>071-074>076-080>082-084>086-088>090-092>094-121200-
SOUTH-CENTRAL ILLINOIS

CITY           SKY/WX    TMP DP  RH WIND       PRES   REMARKS
CARBONDALE     CLOUDY    73  69  87 CALM      30.13R
CAIRO*         CLEAR     73  69  87 CALM      30.14R
MARION         MOCLDY    73  70  88 S3        30.13R
MT. VERNON     CLOUDY    73  66  78 CALM      30.14R
CENTRALIA*     MOCLDY    74  67  79 S6        30.12R
SALEM*         CLOUDY    77  70  80 S6        30.12R
METROPOLIS*      N/A     68  67  96 CALM      30.13S FOG
$$

ILZ067-068-072-073-078-083-087-091-121200-
SOUTHEAST ILLINOIS

CITY           SKY/WX    TMP DP  RH WIND       PRES   REMARKS
FLORA*         MOCLDY    72  67  84 S3        30.13R
HARRISBURG*    MOCLDY    70  70 100 CALM      30.15R FOG
ROBINSON*      PTCLDY    70  68  92 CALM      30.14R
CARMI*         PTCLDY    69  68  98 CALM      30.14R FOG
$$

ABBREVIATIONS USED IN REMARKS
   TC - TEMPERATURE IN CELSIUS
  WCI - WIND CHILL INDEX
   HX - HEAT INDEX
  VSB - VISIBILITY
$$




USA.gov is the U.S. government's official web portal to all federal, state and local government web resources and services.